Location: Bottom School (historical)
(37.9078°N, 89.3593°W)
Time: 01:56:29
(UTC+00:00)

BlueWalker 3 - Pass Details

Date: 07 December 2022
Orbit: 499 x 517 km, 53.2° (Epoch: 06 February)

Event Time Altitude Azimuth Distance (km) Brightness Sun altitude
Rises 00:25:36 0° 320° (NW) 2,622 5.9 -20.7°
Reaches altitude 10° 00:28:14 10° 338° (NNW) 1,729 4.8 -21.2°
Enters shadow 00:29:28 16° 353° (N) 1,406 4.1 -21.4°
